Location: ????????
(55.1591°N, 39.1782°E)
Time: 11:00:50
(UTC+00:00)

ADEOS II - Pass Details

Date: 14 April 2024
Orbit: 795 x 799 km, 98.7° (Epoch: 27 May)

Event Time Altitude Azimuth Distance (km) Brightness Sun altitude
Rises 00:42:35 0° 14° (NNE) 3,321 6.2 -13.2°
Reaches altitude 10° 00:44:58 10° 9° (N) 2,386 5.3 -12.9°
Maximum altitude 00:50:02 50° 296° (WNW) 1,019 2.5 -12.4°
Enters shadow 00:54:00 16° 226° (SW) 1,975 3.5 -11.9°
